Meteo pe oră la Abashevo

Astăzi, 3 August, Marţi

Timp Temperatura Precipitaţii Vânt Presiune Umiditate
00:00 +28°C° 0 mm 3 m/s 755 mmHg 44%
01:00 +28°C° 0 mm 2 m/s 755 mmHg 44%
02:00 +27°C° 0 mm 2 m/s 755 mmHg 44%
03:00 +27°C° 0 mm 2 m/s 755 mmHg 45%
04:00 +27°C° 0 mm 1 m/s 755 mmHg 46%
05:00 +27°C° 0 mm 1 m/s 755 mmHg 48%
06:00 +27°C° 0 mm 1 m/s 755 mmHg 49%
07:00 +30°C° 0 mm 1 m/s 755 mmHg 44%
08:00 +32°C° 0 mm 2 m/s 755 mmHg 39%
09:00 +36°C° 0 mm 3 m/s 755 mmHg 30%
10:00 +37°C° 0 mm 3 m/s 755 mmHg 27%
11:00 +40°C° 0 mm 4 m/s 754 mmHg 23%
12:00 +41°C° 0 mm 4 m/s 754 mmHg 19%
13:00 +41°C° 0 mm 4 m/s 754 mmHg 19%
14:00 +41°C° 0 mm 4 m/s 754 mmHg 19%
15:00 +40°C° 0 mm 4 m/s 753 mmHg 18%
16:00 +38°C° 0 mm 4 m/s 753 mmHg 22%
17:00 +36°C° 0 mm 4 m/s 753 mmHg 25%
18:00 +35°C° 0 mm 4 m/s 753 mmHg 28%
19:00 +33°C° 0 mm 3 m/s 754 mmHg 31%
20:00 +30°C° 0 mm 2 m/s 754 mmHg 35%
21:00 +28°C° 0 mm 2 m/s 754 mmHg 38%
22:00 +28°C° 0 mm 1 m/s 754 mmHg 39%
23:00 +27°C° 0 mm 1 m/s 754 mmHg 40%

Mâine, 4 August, Miercuri

Timp Temperatura Precipitaţii Vânt Presiune Umiditate
00:00 +27°C° 0 mm 1 m/s 754 mmHg 41%
01:00 +26°C° 0 mm 2 m/s 754 mmHg 44%
02:00 +25°C° 0 mm 2 m/s 754 mmHg 48%
03:00 +24°C° 0 mm 2 m/s 755 mmHg 51%
04:00 +25°C° 0 mm 2 m/s 754 mmHg 52%
05:00 +25°C° 0 mm 2 m/s 754 mmHg 53%
06:00 +26°C° 0 mm 2 m/s 754 mmHg 54%
07:00 +28°C° 0 mm 2 m/s 754 mmHg 50%
08:00 +30°C° 0 mm 3 m/s 754 mmHg 45%
09:00 +32°C° 0 mm 4 m/s 754 mmHg 41%
10:00 +33°C° 0 mm 4 m/s 755 mmHg 40%
11:00 +34°C° 0 mm 5 m/s 755 mmHg 39%
12:00 +34°C° 0 mm 5 m/s 755 mmHg 38%
13:00 +34°C° 0 mm 5 m/s 755 mmHg 37%
14:00 +34°C° 0 mm 4 m/s 755 mmHg 37%
15:00 +34°C° 0 mm 3 m/s 755 mmHg 36%
16:00 +33°C° 0 mm 4 m/s 755 mmHg 40%
17:00 +32°C° 0 mm 4 m/s 755 mmHg 44%
18:00 +30°C° 0 mm 5 m/s 755 mmHg 48%
19:00 +27°C° 0.2 mm 4 m/s 755 mmHg 58%
20:00 +25°C° 0.2 mm 4 m/s 756 mmHg 67%
21:00 +22°C° 0.2 mm 3 m/s 756 mmHg 77%
22:00 +21°C° 0 mm 3 m/s 756 mmHg 79%
23:00 +20°C° 0 mm 3 m/s 756 mmHg 81%

Poimâine, 5 August, Joi

Timp Temperatura Precipitaţii Vânt Presiune Umiditate
00:00 +19°C° 0 mm 3 m/s 757 mmHg 83%
01:00 +19°C° 0 mm 3 m/s 757 mmHg 85%
02:00 +18°C° 0 mm 3 m/s 757 mmHg 86%
03:00 +18°C° 0 mm 2 m/s 757 mmHg 87%
04:00 +19°C° 0 mm 3 m/s 757 mmHg 84%
05:00 +19°C° 0 mm 3 m/s 758 mmHg 81%
06:00 +20°C° 0 mm 3 m/s 758 mmHg 78%
07:00 +22°C° 0 mm 3 m/s 758 mmHg 69%
08:00 +25°C° 0 mm 3 m/s 758 mmHg 59%
09:00 +27°C° 0 mm 4 m/s 758 mmHg 50%
10:00 +28°C° 0 mm 4 m/s 758 mmHg 44%
11:00 +29°C° 0 mm 4 m/s 758 mmHg 38%
12:00 +30°C° 0 mm 4 m/s 758 mmHg 32%
13:00 +30°C° 0 mm 4 m/s 758 mmHg 31%
14:00 +30°C° 0 mm 5 m/s 758 mmHg 30%
15:00 +29°C° 0 mm 5 m/s 758 mmHg 30%
16:00 +29°C° 0 mm 5 m/s 758 mmHg 31%
17:00 +28°C° 0 mm 5 m/s 758 mmHg 33%
18:00 +27°C° 0 mm 5 m/s 758 mmHg 34%
19:00 +25°C° 0 mm 4 m/s 758 mmHg 38%
20:00 +23°C° 0 mm 4 m/s 759 mmHg 43%
21:00 +21°C° 0 mm 3 m/s 759 mmHg 47%
22:00 +20°C° 0 mm 3 m/s 759 mmHg 48%
23:00 +19°C° 0 mm 3 m/s 759 mmHg 50%

6 August, Vineri

Timp Temperatura Precipitaţii Vânt Presiune Umiditate
00:00 +18°C° 0 mm 3 m/s 759 mmHg 52%
01:00 +18°C° 0 mm 3 m/s 759 mmHg 55%
02:00 +17°C° 0 mm 3 m/s 759 mmHg 59%
03:00 +17°C° 0 mm 3 m/s 759 mmHg 62%
04:00 +18°C° 0 mm 3 m/s 760 mmHg 61%
05:00 +18°C° 0 mm 2 m/s 760 mmHg 60%
06:00 +19°C° 0 mm 2 m/s 760 mmHg 58%
07:00 +21°C° 0 mm 3 m/s 760 mmHg 52%
08:00 +24°C° 0 mm 3 m/s 760 mmHg 45%
09:00 +26°C° 0 mm 4 m/s 760 mmHg 38%
10:00 +27°C° 0 mm 3 m/s 760 mmHg 34%
11:00 +28°C° 0 mm 3 m/s 760 mmHg 30%
12:00 +30°C° 0 mm 3 m/s 760 mmHg 25%
13:00 +30°C° 0 mm 3 m/s 759 mmHg 24%
14:00 +30°C° 0 mm 3 m/s 759 mmHg 23%
15:00 +31°C° 0 mm 3 m/s 759 mmHg 22%
16:00 +30°C° 0 mm 3 m/s 759 mmHg 23%
17:00 +30°C° 0 mm 4 m/s 759 mmHg 25%
18:00 +29°C° 0 mm 4 m/s 759 mmHg 26%
19:00 +27°C° 0 mm 3 m/s 759 mmHg 30%
20:00 +24°C° 0 mm 3 m/s 759 mmHg 34%
21:00 +21°C° 0 mm 3 m/s 759 mmHg 38%
22:00 +20°C° 0 mm 3 m/s 759 mmHg 40%
23:00 +20°C° 0 mm 3 m/s 759 mmHg 43%

7 August, Sâmbătă

Timp Temperatura Precipitaţii Vânt Presiune Umiditate
00:00 +19°C° 0 mm 3 m/s 759 mmHg 45%
01:00 +18°C° 0 mm 3 m/s 759 mmHg 45%
02:00 +18°C° 0 mm 3 m/s 760 mmHg 46%
03:00 +17°C° 0 mm 3 m/s 760 mmHg 46%
04:00 +18°C° 0 mm 3 m/s 760 mmHg 44%
05:00 +19°C° 0 mm 2 m/s 760 mmHg 43%
06:00 +20°C° 0 mm 2 m/s 760 mmHg 41%
07:00 +22°C° 0 mm 3 m/s 760 mmHg 37%
08:00 +26°C° 0 mm 3 m/s 760 mmHg 32%
09:00 +29°C° 0 mm 3 m/s 760 mmHg 27%
10:00 +30°C° 0 mm 3 m/s 760 mmHg 25%
11:00 +31°C° 0 mm 3 m/s 759 mmHg 23%
12:00 +33°C° 0 mm 3 m/s 759 mmHg 21%
13:00 +34°C° 0 mm 3 m/s 759 mmHg 20%
14:00 +34°C° 0 mm 3 m/s 759 mmHg 20%
15:00 +35°C° 0 mm 3 m/s 758 mmHg 19%
16:00 +34°C° 0 mm 3 m/s 758 mmHg 21%
17:00 +34°C° 0 mm 3 m/s 758 mmHg 23%
18:00 +33°C° 0 mm 3 m/s 758 mmHg 24%
19:00 +30°C° 0 mm 3 m/s 759 mmHg 27%
20:00 +28°C° 0 mm 3 m/s 759 mmHg 29%
21:00 +26°C° 0 mm 3 m/s 759 mmHg 31%
22:00 +25°C° 0 mm 3 m/s 759 mmHg 33%
23:00 +25°C° 0 mm 4 m/s 759 mmHg 35%

8 August, Duminică

Timp Temperatura Precipitaţii Vânt Presiune Umiditate
00:00 +23°C° 0 mm 4 m/s 759 mmHg 36%
01:00 +24°C° 0 mm 3 m/s 760 mmHg 37%
02:00 +22°C° 0 mm 3 m/s 760 mmHg 38%
03:00 +22°C° 0 mm 3 m/s 760 mmHg 39%
04:00 +22°C° 0 mm 3 m/s 760 mmHg 40%
05:00 +24°C° 0 mm 3 m/s 760 mmHg 40%
06:00 +24°C° 0 mm 3 m/s 761 mmHg 40%
07:00 +26°C° 0 mm 3 m/s 761 mmHg 37%
08:00 +28°C° 0 mm 4 m/s 761 mmHg 33%
09:00 +29°C° 0 mm 5 m/s 761 mmHg 29%
10:00 +32°C° 0 mm 5 m/s 761 mmHg 27%
11:00 +33°C° 0 mm 5 m/s 761 mmHg 26%
12:00 +34°C° 0 mm 6 m/s 760 mmHg 24%
13:00 +35°C° 0 mm 6 m/s 760 mmHg 24%
14:00 +35°C° 0 mm 6 m/s 760 mmHg 23%
15:00 +36°C° 0 mm 6 m/s 760 mmHg 23%
16:00 +35°C° 0 mm 5 m/s 760 mmHg 24%
17:00 +35°C° 0 mm 4 m/s 760 mmHg 25%
18:00 +34°C° 0 mm 4 m/s 760 mmHg 26%
19:00 +32°C° 0 mm 4 m/s 760 mmHg 30%
20:00 +29°C° 0 mm 4 m/s 760 mmHg 33%
21:00 +27°C° 0 mm 4 m/s 760 mmHg 37%
22:00 +27°C° 0 mm 4 m/s 760 mmHg 36%
23:00 +27°C° 0 mm 4 m/s 759 mmHg 36%
Arată mai mult

Formular de consimțământ

Meteoprog și furnizorii noștri de servicii pot stoca și accesa date personale, precum cookies, identificatori de dispozitiv sau alte tehnologii similare pe dispozitivul dumneavoastră și procesa astfel de date pentru a personaliza conținutul și reclamele, dar și pentru a oferi caracteristici de social media și pentru a analiza traficul.

  • Stocarea și/sau accesarea informațiilor pe dispozitivul dumneavoastră

    Cookies, identificatori de dispozitiv sau alte informații pot fi stocate sau accesate pe dispozitiv în scopurile indicate mai sus.

  • Reclame și conținut personalizat, evaluarea reclamelor și a conținutului, informații despre audiențe și dezvoltarea produselor

    Reclamele și conținutul pot fi personalizate pe baza unui profil. Pot fi adăugate date suplimentare pentru a personaliza mai bine reclamele și conținutul. Performanța reclamelor și conținutului poate fi măsurată. Pot fi obținute informații despre utilizatorii care au văzut reclamele și conținutul. Aceste date pot fi utilizate pentru a dezvolta sau îmbunătăți experiența utilizatorilor, sistemele și software-ul.

Dând clic pe ‘Sunt de acord’, permiteți utilizarea cookie-urilor menționate, a identificatorilor de dispozitiv, balizelor web sau altor tehnologii similare. Setările pot fi modificate din browser-ul dispozitivului dumneavoastră.

În anumite scopuri, interesele legitime pot prima asupra consimțământului. Puteți citi mai multe informații în acest sens în Politica privind Confidențialitatea Datelor și Cookie.